Weather History for Chillicothe, MO

Change the Weather History Date:

Tuesday, June 18, 2013

  Actual Average (KIRK) Record (KIRK)
Temperature  
Mean Temperature 74 °F 72 °F  
Max Temperature 82 °F 82 °F 100 °F (1953)
Min Temperature 64 °F 62 °F 46 °F (1965)
Degree Days  
Heating Degree Days 0 0  
Month to date heating degree days 12  
Since 1 June heating degree days 12  
Since 1 July heating degree days 5852  
Cooling Degree Days 8 7  
Month to date cooling degree days 96  
Year to date cooling degree days 158  
Since 1 June cooling degree days 96  
Growing Degree Days 24 (Base 50)    
Moisture  
Dew Point 62 °F    
Average Humidity 69    
Maximum Humidity 93    
Minimum Humidity 45    
Precipitation  
Precipitation 0.00 in 0.16 in 3.20 in (1942)
Month to date precipitation 3.22  
Year to date precipitation 17.37  
Sea Level Pressure  
Sea Level Pressure 29.98 in    
Wind  
Wind Speed 2 mph (NW)    
Max Wind Speed 7 mph    
Max Gust Speed -    
T = Trace of Precipitation, MM = Missing Value Source: NWS Daily Summary

Daily Weather History Graph

Daily Weather History Graph

Search for Another Location

Airport:

Trip Planner

Search our weather history database for the weather conditions in past years. The results will help you decide how hot, cold, wet, or windy it might be!

Date:

Astronomy

Jun. 18, 2013 Rise Set
Actual Time 5:45 AM CDT 8:45 PM CDT
Civil Twilight 5:13 AM CDT 9:18 PM CDT
Nautical Twilight 4:31 AM CDT 9:59 PM CDT
Astronomical Twilight 3:43 AM CDT 10:48 PM CDT
Moon 3:31 PM CDT (6/18) 1:54 AM CDT (6/18)
Length of Visible Light 16h 05m
Length of Day
14h 59m
Waxing Gibbous, 71% of the Moon is Illuminated
Jun 18
Waxing Gibbous
Jun 23
Full
Jun 29
Last Quarter
Jul 8
New
Jul 15
First Quarter

Hourly Weather History & Observations

Time (CDT) Temp. Heat Index Dew Point Humidity Pressure Visibility Wind Dir Wind Speed Gust Speed Precip Events Conditions
12:52 AM 66.0 °F - 64.0 °F 93% 29.94 in - Calm Calm - N/A   Unknown
1:52 AM 68.0 °F - 64.9 °F 90% 29.94 in - Calm Calm - N/A   Unknown
2:52 AM 68.0 °F - 64.9 °F 90% 29.94 in - Calm Calm - N/A   Unknown
3:52 AM 70.0 °F - 66.0 °F 87% 29.96 in - NW 4.6 mph - N/A   Unknown
4:52 AM 71.1 °F - 64.9 °F 81% 29.95 in - Variable 3.5 mph - N/A   Unknown
5:52 AM 69.1 °F - 64.0 °F 84% 29.96 in - Calm Calm - N/A   Unknown
6:52 AM 70.0 °F - 64.0 °F 81% 29.96 in - Calm Calm - N/A   Unknown
7:52 AM 75.0 °F - 61.0 °F 62% 29.97 in - NNW 3.5 mph - N/A   Unknown
8:52 AM 75.9 °F - 57.9 °F 54% 30.00 in - North 6.9 mph - N/A   Unknown
9:52 AM 79.0 °F - 59.0 °F 50% 30.00 in - North 6.9 mph - N/A   Unknown
10:52 AM 79.0 °F - 60.1 °F 52% 30.01 in - Variable 4.6 mph - N/A   Unknown
11:52 AM 80.1 °F 80.4 °F 57.0 °F 45% 30.01 in - North 5.8 mph - N/A   Unknown
12:52 PM 81.0 °F 81.6 °F 60.1 °F 49% 30.01 in - WSW 4.6 mph - N/A   Unknown
1:52 PM 80.1 °F 80.6 °F 57.9 °F 47% 30.00 in - Calm Calm - N/A   Unknown
2:52 PM 77.0 °F - 62.1 °F 60% 30.02 in - NW 6.9 mph - N/A   Unknown
3:52 PM 73.9 °F - 57.9 °F 57% 30.01 in - NW 4.6 mph - N/A   Unknown
4:52 PM 75.9 °F - 59.0 °F 56% 29.97 in - Variable 4.6 mph - N/A   Unknown
5:52 PM 79.0 °F - 59.0 °F 50% 29.96 in - Calm Calm - N/A   Unknown
6:52 PM 77.0 °F - 62.1 °F 60% 29.96 in - WSW 3.5 mph - N/A   Unknown
7:52 PM 75.0 °F - 63.0 °F 66% 29.97 in - Calm Calm - N/A   Unknown
8:52 PM 71.1 °F - 64.9 °F 81% 29.97 in - Calm Calm - N/A   Unknown
9:52 PM 69.1 °F - 64.0 °F 84% 29.98 in - Calm Calm - N/A   Unknown
10:52 PM 66.9 °F - 64.0 °F 90% 29.99 in - Calm Calm - N/A   Unknown
11:52 PM 64.9 °F - 62.1 °F 90% 29.99 in - Calm Calm - N/A   Unknown